GSAT0222 (GALILEO 26)

Last updated on Jan. 23, 2021, 7:11 a.m. UTC

1 43565U 18060B   21022.77291301 -.00000055  00000-0  00000-0 0  9996
2 43565  56.9427  35.0518 0005951 281.6225  78.3534  1.70476131 15608
UTC
Height (km)
Latitude
Longitude
Inclination
Orbital Period
UTC large
Height (km)
Speed (km/s)
/
Latitude / Longitude
Inclination (degrees)
Orbital Period (minutes)
Azimuth
Elevation
Range (km)
Doppler Factor
iOS Compass Heading
iOS Angle

Next 30 passes for location: Hong Kong

Rise time Rise Azimuth (degrees) Set time Set Azimuth (degrees) Duration Max altitude (degrees)

No matching passes for this satellites